Other Public Products
Issued by NWS Grand Forks, ND

Home | Current Version | Previous Version | Graphics & Text | Print | Product List | Glossary On
Versions: 1 2 3 4 5 6 7 8 9 10 11 12 13 14 15 16 17 18 19 20 21 22 23 24 25 26 27 28 29 30 31 32 33 34 35 36 37 38 39 40 41 42 43 44 45 46 47 48 49 50
000
FPUS83 KFGF 191910
OPUFGF
PRAIRIE TO PINES WEATHER ROUNDUP
NATIONAL WEATHER SERVICE EASTERN NORTH DAKOTA/GRAND FORKS ND
200 PM CDT FRI SEP 19 2014

 **SATELLITE DATA USED TO AUGMENT SKY COVER AT AUTOMATED STATIONS**
 *****  WEATHER ACROSS EASTERN NORTH DAKOTA  *****

CITY           SKY/WX    TMP DP  RH WIND       PRES   REMARKS
GRAND FORKS    PTSUNNY   75  66  73 S16       29.52F
GRAND FORKS AF PTSUNNY   78  65  63 S12       29.52F
GRAND CITY NWS   N/A     73 N/A N/A S18         N/A
BUXTON         NOT AVBL
DEVILS LAKE    SUNNY     77  57  50 W14       29.53F
FARGO          CLOUDY    73  64  73 S15       29.59F
WAHPETON ARPT  CLOUDY    70  61  73 S12       29.62F
$$

 *****  WEATHER ACROSS CENTRAL AND WESTERN NORTH DAKOTA  *****

CITY           SKY/WX    TMP DP  RH WIND       PRES   REMARKS
JAMESTOWN      MOSUNNY   79  61  53 W13G22    29.58S
BISMARCK       SUNNY     86  52  30 W21       29.65S
MINOT          SUNNY     81  47  30 SW23G31   29.56S
MINOT AFB      SUNNY     77  50  38 W18G29    29.55F
GARRISON         N/A     82  49  31 W21G31    29.61S
WILLISTON      SUNNY     79  48  33 W23G32    29.67R
DICKINSON      SUNNY     78  49  35 W24       29.72S
HETTINGER      SUNNY     80  47  31 W22G28    29.77R
$$

 *****  OTHER OBSERVATIONS NORTHEAST NORTH DAKOTA  *****

CITY           SKY/WX    TMP DP  RH WIND       PRES   REMARKS
WALHALLA       FAIR      75  61  60 CALM      29.50R
LANGDON        FAIR      77  59  53 SW14      29.53S
CAVALIER       FAIR      75  63  64 S6        29.50R
GRAFTON        FAIR      73  64  73 S13       29.51R
CANDO          FAIR      77  55  47 W14G20    29.53S
FORT TOTTEN    NOT AVBL
ROLLA          FAIR      75  55  50 W16G25    29.54R
RUGBY          FAIR      77  55  47 W14       29.55R
 ***** THE ABOVE OBSERVATIONS ARE NON NWS ARE NOT QUALITY
        CONTROLLED AND MAY MIS-REPORT RAIN FOR SNOW...
$$

 *****  OTHER OBSERVATIONS SOUTHEAST NORTH DAKOTA *****

CITY           SKY/WX    TMP DP  RH WIND       PRES   REMARKS
COOPERSTOWN    NOT AVBL
VALLEY CITY    FAIR      77  68  73 W13       29.58F
OAKES            N/A     73  66  78 SW13G18   29.62F
GWINNER        CLEAR     75  64  69 SW15      29.62F
SHEYENNE NWR     N/A     75  65  71 SW9       29.95
BUFFALO        NOT AVBL
WYNDMERE         N/A     75  64  69 SW9         N/A
 ***** THE ABOVE OBSERVATIONS ARE NON NWS ARE NOT QUALITY
       CONTROLLED AND MAY MIS-REPORT RAIN FOR SNOW...
$$

  *****  WEATHER ACROSS NORTHERN MINNESOTA  *****

CITY           SKY/WX    TMP DP  RH WIND       PRES   REMARKS
FLAG ISLAND    LGT RAIN  61  59  94 S6        29.50F
WARROAD        CLOUDY    63  59  88 SW9       29.52S
ROSEAU         CLOUDY    64  59  82 S10       29.51F
HALLOCK        PTSUNNY   72  64  78 SW12      29.49S
THF RVR FALLS  CLOUDY    66  64  94 S21       29.55R
HALSTAD          N/A     71  64  80 S14         N/A
FOSSTON        CLOUDY    66  61  82 S17       29.59F
BAUDETTE       LGT RAIN  62  61  96 S12       29.54F
WASKISH        CLOUDY    63  61  94 SW3       29.61S
CROOKSTON      CLOUDY    70  64  83 S17       29.55F
$$
  *****  WEATHER ACROSS CENTRAL AND WEST MINNESOTA  *****

CITY           SKY/WX    TMP DP  RH WIND       PRES   REMARKS
BEMIDJI        CLOUDY    64  61  89 SW10      29.62F
PARK RAPIDS    CLOUDY    64  61  90 S10       29.64F
WADENA         LGT RAIN  63  61  94 S8        29.68S
DETROIT LAKES  CLOUDY    64  61  88 SW12      29.66R
MOORHEAD       CLOUDY    72  66  83 S9        29.61F
FERGUS FALLS   CLOUDY    66  61  82 S12       29.64F
ELBOW LAKE     LGT RAIN  64  63  97 S8        29.66F
MORRIS MN      CLOUDY    66  64  94 S7        29.66S
STAPLES        CLOUDY    61  59  94 SW5       29.69R FOG
WHEATON        CLOUDY    66  63  88 S6        29.66F
$$
  *****  WEATHER ELSEWHERE ACROSS MINNESOTA  *****

CITY           SKY/WX    TMP DP  RH WIND       PRES   REMARKS
DULUTH         CLOUDY    63  55  75 SW16G25   29.69F
INTRNTL FALLS  RAIN      60  59  96 SW8       29.58F FOG
ELY            DRIZZLE   57  55  94 SW8G16    29.66F
CLOQUET        CLOUDY    63  55  77 SW13      29.71R
BRAINERD       LGT RAIN  60  59  96 S12       29.68F FOG
HIBBING        CLOUDY    61  56  83 S9        29.67F
ALEXANDRIA     CLOUDY    63  62  97 S10       29.68R FOG
SAINT CLOUD    LGT RAIN  64  61  90 S10       29.72S FOG
MINNEAPOLIS    CLOUDY    75  60  59 S18G24    29.70F
$$

  *****  WEATHER ACROSS SOUTH DAKOTA  *****

CITY           SKY/WX    TMP DP  RH WIND       PRES   REMARKS
SIOUX FALLS    MOSUNNY   84  64  50 SW14G29   29.71S
BROOKINGS      NOT AVBL
WATERTOWN      PTSUNNY   76  64  66 SW17G24   29.67F
HURON          PTSUNNY   79  64  60 W7        29.66F
SISSETON         N/A     71  65  81 W12       29.63F
ABERDEEN       CLOUDY    72  65  78 SW8       29.65F
MITCHELL       MOSUNNY   83  67  58 W9        29.69S
PIERRE         PTSUNNY   83  57  41 W17       29.70F
MOBRIDGE       MOSUNNY   81  61  50 NW10      29.66S
RAPID CITY     MOSUNNY   82  51  34 N16       29.83S
$$

  *****  SOME WEATHER IN NEARBY STATES *****

CITY           SKY/WX    TMP DP  RH WIND       PRES   REMARKS
GLASGOW MT     MOSUNNY   74  49  41 NW15G21   29.76R
GREAT FALLS MT SUNNY     71  42  35 W23G35    29.91S
CHEYENNE WY    MOSUNNY   85  38  18 W16       30.05S
SCOTTSBLUFF NE SUNNY     86  50  28 VRB6      29.91F
OMAHA NE       MOSUNNY   79  66  64 S18       29.86F
DES MOINES IA  PTSUNNY   79  63  57 S17       29.92F
DAVENPORT IA   SUNNY     74  50  42 S17       30.03F
CHICAGO IL     MOSUNNY   73  46  38 S20G26    30.08F
EAU CLAIRE WI  PTSUNNY   72  56  57 S24G33    29.79F
LA CROSSE WI   SUNNY     75  56  51 S23G30    29.87F
$$

  *****  SOME NATIONAL WEATHER *****

CITY           SKY/WX    TMP DP  RH WIND       PRES   REMARKS
LA GUARDIA NY  MOSUNNY   63  44  50 NE12      30.35S
RALEIGH NC     MOSUNNY   79  58  48 E10G16    30.18S
ATLANTA GA     MOSUNNY   81  64  56 VRB6      30.07F
NEW ORLEANS LA PTSUNNY   88  65  46 E13       29.94F HX  90
OKLAHOMA CITY  MOSUNNY   86  65  49 S13       29.99F
ALBUQUERQUE NM MOSUNNY   78  53  41 SE6       30.07F
SALT LAKE CITY MOSUNNY   77  53  43 NW6       30.05S
LOS ANGELES CA MOSUNNY   75  62  64 W8        29.90F
BOISE ID       SUNNY     73  47  39 NW12      30.08F
SEATTLE WA     PTSUNNY   69  56  62 SW9       30.12R
$$

*** WEATHER ACROSS MANITOBA...SASKATCHEWAN AND ONTARIO ***
                ***ONTARIO***

CITY           SKY/WX    TMP DP  RH WIND       PRES   REMARKS
GERALDTON      LGT RAIN  54  52  94 SW14G21   29.64F
THUNDER BAY    NOT AVBL
SIOUX LOOKOUT  NOT AVBL
TORONTO        PTSUNNY   55  43  62 E13       30.26F
BIG TROUT LK   CLOUDY    54  52  94 NW8       29.40R
PICKLE LAKE    LGT RAIN  59  57  94 SW12G18   29.45F FOG
DRYDEN         LGT RAIN  59  57  94 SW13G18   29.52F
KENORA         NOT AVBL
$$
                *** MANITOBA***

CITY           SKY/WX    TMP DP  RH WIND       PRES   REMARKS
BRANDON        CLOUDY    70  61  73 N3        29.52R
DAUPHIN        PTSUNNY   59  52  77 NW8       29.58S
ISLAND LAKE    CLOUDY    54  54 100 N6        29.48  FOG
PILOT MOUND    NOT AVBL
THE PAS        NOT AVBL
THOMPSON       CLOUDY    46  43  87 NW9       29.57R
WINNIPEG       CLOUDY    63  61  94 W5        29.49F
LYNN LAKE      CLOUDY    48  37  66 NW6       29.61R
CHURCHILL      CLOUDY    43  36  75 NW25      29.44R
GILLAM         CLOUDY    46  41  81 NW14      29.51R
$$
                ***SASKATCHEWAN***

CITY           SKY/WX    TMP DP  RH WIND       PRES   REMARKS
ESTEVAN        PTSUNNY   72  57  60 N14G22    29.63R
KINDERSLEY     MOSUNNY   68  50  52 W12G18    29.74R
LLOYDMINSTER   NOT AVBL
PRINCE ALBERT  NOT AVBL
REGINA         PTSUNNY   64  55  72 NW9       29.67S


USA.gov is the U.S. government's official web portal to all federal, state and local government web resources and services.